Volver al catálogo

CZ-2C DEB

ActivoSSO
NORAD 28481·DEBRIS·🇨🇳 China

Lanzado Nov 18, 2004 desde Xichang Satellite Launch Center

Loading…

Próximos Pases (próximas 24 horas)

TLE

ActualizadoSource: Space-Track

Época: Sep 14, 2026, 04:50 UTC

1 28481U 04046C   26257.20144854  .00001549  00000-0  35137-3 0  9998
2 28481  98.0180 246.2141 0096177 195.7062 224.0731 14.54633573143841

Sigue CZ-2C DEB en tiempo real con AllMySat

Download on the App Store